Location: Asheville, NC
(35.6000°N, 82.5500°W)
Time: 08:00:43
(UTC-04:00)

ISS - Visible Passes

Search period start: 22 October 2017 00:00
Search period end: 01 November 2017 00:00
Orbit: 401 x 408 km, 51.6° (Epoch: 23 October)

Date Brightness Start Highest point End Pass type
(mag) Time Alt. Az. Time Alt. Az. Time Alt. Az.
26 Oct -0.8 07:20:39 10° S 07:22:58 18° SE 07:25:15 10° E visible
28 Oct -2.9 07:11:20 10° SSW 07:14:28 50° SE 07:17:37 10° ENE visible
29 Oct -1.5 06:19:33 10° S 06:22:11 23° SE 06:24:50 10° ENE visible
30 Oct -0.6 05:30:06 11° SE 05:30:06 11° SE 05:30:59 10° ESE visible
30 Oct -3.7 07:02:54 10° WSW 07:06:04 54° NW 07:09:16 10° NE visible
31 Oct -3.7 06:13:30 66° SSE 06:13:39 67° SE 06:16:53 10° NE visible
